Вернуться в каталог

THORAD AGENA D DEB

АктивенLEO
NORAD 5755·DEBRIS·🇺🇸 United States

Запущен Sep 30, 1969 с Vandenberg Space Force Base

Loading…

Ближайшие Пролёты (ближайшие 24 часа)

TLE

СвежийSource: Space-Track

Эпоха: Sep 14, 2026, 21:57 UTC

1 05755U 69082JP  26257.91512819  .00001657  00000-0  44672-3 0  9990
2 05755  69.9235  83.6046 0009337 270.7741  89.2322 14.49629625947683

Отслеживайте THORAD AGENA D DEB в реальном времени с AllMySat

Download on the App Store